Regional Weather Roundup
Issued by NWS

Home | Current Version | Previous Version | Graphics & Text | Print | Product List | Glossary On
Versions: 1 2 3 4 5 6 7 8 9 10 11 12 13 14 15 16 17 18 19 20 21 22 23 24 25 26 27 28 29 30 31 32 33 34 35 36 37 38 39 40 41 42 43 44 45 46 47 48 49 50
000
ASUS45 KTFX 300410
RWRMT
MONTANA REGIONAL WEATHER ROUNDUP
NATIONAL WEATHER SERVICE GREAT FALLS MT
1000 PM MDT FRI MAY 29 2015

NOTE: "FAIR" INDICATES FEW OR NO CLOUDS BELOW 12000 FEET WITH NO
SIGNIFICANT WEATHER AND/OR OBSTRUCTIONS TO VISIBILITY.

MTZ001>007-043-300500-
WEST OF THE DIVIDE

CITY           SKY/WX    TMP DP  RH WIND       PRES   REMARKS
KALISPELL      LGT RAIN  61  53  75 E10       29.98R
MISSOULA       MOCLDY    62  45  53 SE7       30.01R
BUTTE          MOCLDY    60  46  59 S13       30.13R
MULLAN PASS    PTCLDY    58  41  53 CALM      30.10S
DEER LODGE       N/A     55  48  76 CALM      30.14R
EUREKA           N/A     55  54  94 E5        30.03R
HAMILTON         N/A     59  48  67 S2        30.02S
LIBBY            N/A     63  52  67 CALM      29.98R
RONAN            N/A     56  50  80 E1        30.04S
$$

MTZ008-052>055-300500-
SOUTHWEST MONTANA

CITY           SKY/WX    TMP DP  RH WIND       PRES   REMARKS
BOZEMAN        PTCLDY    54  46  74 SE10      30.10R
DILLON         CLOUDY    60  45  57 SW12      30.11R
W YELLOWSTONE  CLEAR     50  36  57 SW3       30.22R
THREE FORKS      N/A     59   4  11 SE2       30.09R
TWIN BRIDGES     N/A     63  44  49 N17       30.06R
$$

MTZ009-010-012-014-046-048-049-054-300500-
EAST SLOPES AND CENTRAL MONTANA

CITY           SKY/WX    TMP DP  RH WIND       PRES   REMARKS
CUT BANK       CLOUDY    56  46  69 E16       30.09R
GREAT FALLS    CLOUDY    58  45  62 E14       30.07R
MALMSTROM AFB  MOCLDY    57  47  71 SE10      30.07R
HELENA         CLOUDY    58  50  75 N9        30.09R
CONRAD           N/A     56  51  83 NE8       30.11R
$$

MTZ011-013-016-021-045-047-050-051-300500-
NORTH CENTRAL MONTANA

CITY           SKY/WX    TMP DP  RH WIND       PRES   REMARKS
HAVRE          PTCLDY    55  39  54 E20       30.12S
LEWISTOWN      CLEAR     52  43  71 SE5       30.15R
N BAR RANCH    MOCLDY    52  45  76 SE6       30.21F
CHINOOK          N/A     54  36  50 E13       30.15S
FORT BENTON      N/A     59  46  63 NE9       30.09R
$$

MTZ017>020-022>027-061-062-300500-
NORTHEAST MONTANA

CITY           SKY/WX    TMP DP  RH WIND       PRES   REMARKS
GLASGOW        CLEAR     49  35  58 E9        30.24S
JORDAN           N/A     50  35  56 E7        30.22S
SIDNEY         CLEAR     46  28  49 CALM      30.29R
WOLF POINT     CLEAR     48  35  60 E3        30.27R
MALTA            N/A     51  32  48 E5        30.17S
PLENTYWOOD       N/A     45  27  49 NE8       30.29S
POPLAR           N/A     48  30  49 E7        30.28R
$$

MTZ028>42-056>058-300500-
SOUTHCENTRAL AND SOUTHEAST MONTANA

CITY           SKY/WX    TMP DP  RH WIND       PRES   REMARKS
BAKER          CLEAR     44  34  67 E5        30.27R
BILLINGS       PTCLDY    55  45  68 NE6       30.18F
LIVINGSTON     CLOUDY    52  45  77 SE8       30.18R
MILES CITY     CLEAR     52  33  48 NE8       30.23R
BIG TIMBER       N/A     54  46  76 NE7       30.19S
LAUREL           N/A     53  46  77 NE2       30.15F
ROUNDUP          N/A     53  40  61 CALM      30.10S
$$

REGIONAL REPORTS...DAKOTAS

CITY           SKY/WX    TMP DP  RH WIND       PRES   REMARKS
WILLISTON      CLEAR     49  32  52 NE6       30.29R
MINOT          CLEAR     41  31  67 N5        30.30R
DICKINSON      CLEAR     40  32  73 E7        30.28R
BEACH          FAIR      39  37  93 E9        30.29R
CROSBY         FAIR      41  32  70 NE7       30.32R
WATFORD CITY   FAIR      43  36  75 SE6       30.28R
BISMARCK       CLEAR     50  33  52 N7        30.30R
GRAND FORKS    CLEAR     43  31  62 N14       30.30R
FARGO          PTCLDY    47  34  60 N18       30.25R
BUFFALO SD       N/A     46  37  71 E9        30.22R
RAPID CITY     CLEAR     42  37  82 NE7       30.29R
$$

REGIONAL REPORTS...WYOMING/IDAHO/WASHINGTON

CITY           SKY/WX    TMP DP  RH WIND       PRES   REMARKS
GILLETTE       CLEAR     43  37  79 SW5       30.26R
SHERIDAN       CLEAR     49  44  83 SE5       30.21F
BUFFALO WY       N/A    N/A N/A N/A MISG      30.25F
CODY           CLEAR     54  48  82 CALM      30.19S
YELLOWSTONE LA   N/A     40  37  89 CALM      30.31R
IDAHO FALLS    CLEAR     63  44  50 S3        30.13R
SALMON         CLOUDY    66  43  42 SE3       30.04R
BOISE          PTCLDY    74  40  29 E6        29.95R
SPOKANE        CLOUDY    63  51  65 N16       29.94R
$$

REGIONAL REPORTS...ALBERTA

CITY           SKY/WX    TMP DP  RH WIND       PRES   REMARKS
EDMONTON       LGT RAIN  52  34  50 E7        30.18S
CALGARY        CLOUDY    50  41  71 SE9       30.14R
LETHBRIDGE     LGT RAIN  54  52  94 NW6       30.11R
MEDICINE HAT   CLEAR     59  36  41 SE12      30.11S
$$

REGIONAL REPORTS...SASKATCHEWAN

CITY           SKY/WX    TMP DP  RH WIND       PRES   REMARKS
SWIFT CURRENT  CLOUDY    48  21  34 E16G23    30.25R
REGINA         PTCLDY    45  25  45 NE12      30.34R
SASKATOON      MOCLDY    46  25  42 E9        30.34S
$$


USA.gov is the U.S. government's official web portal to all federal, state and local government web resources and services.